Location: Unspecified
(52.1971°N, 0.0000°E)
Time: 11:46:22
(UTC+00:00)

YUBILEINY - Pass Details

Date: 22 December 2019
Orbit: 1478 x 1509 km, 82.5° (Epoch: 22 January)

Event Time Altitude Azimuth Distance (km) Brightness Sun altitude
Rises 03:27:05 0° 341° (NNW) 4,612 ? -41.2°
Reaches altitude 10° 03:33:47 10° 18° (NNE) 3,630 ? -40.2°
Maximum altitude 03:35:34 11° 30° (NNE) 3,577 ? -40.0°
Drops below altitude 10° 03:37:21 10° 42° (NE) 3,630 ? -39.7°
Sets 03:44:01 0° 79° (ENE) 4,611 ? -38.7°
